Flag for Botswana Weather past 2 weeks in Molepolole, Botswana

Now
64 °F

Scattered clouds.


Feels Like: 64 °F
Forecast: 60 / 80 °F
Wind: 9 mph from East

Location: Seretse Khama International Airport

Current Time: Oct 26, 2014 at 6:41:51 AM

Latest Report: Oct 26, 2014 at 6:00 AM


Visibility: N/A

Pressure: 30.15 "Hg

Humidity: 73%

Dew point: 55 °F

Location of MolepololeLocation

Historic Weather in Molepolole — Graph

°F

Molepolole temperature yesterday

Maximum temperature yesterday: 91 °F (at 3:00 PM)
Minimum temperature yesterday: 68 °F (at 6:00 AM)
Average temperature yesterday: 78 °F

Past Weeks' High & Low Weather Summary

 TemperatureHumidityPressure
High100 °F (Oct 13, 3:00 PM)100% (Oct 16, 4:00 AM)30.24 "Hg (Oct 16, 4:00 AM)
Low55 °F (Oct 16, 5:00 AM)7% (Oct 13, 6:00 PM)29.71 "Hg (Oct 16, 3:00 PM)
Average76 °F38%30.04 "Hg
* Reported Oct 11 5:00 AM — Oct 26 5:00 AM, Molepolole, Weather by CustomWeather, © 2014

Note: Actual official high and low records may vary slightly from our data, if they occured in-between our weather recording intervals... More about our weather records

Advertising

Molepolole weather history for previous 24 hours

 ConditionsComfort  
Time TempWeatherWind HumidityBarometerVisibility
5:00 AM
Oct 26
64 °FSunny.9 mph73%30.15 "Hg10 mi
4:00 AM66 °FClear.12 mph68%30.12 "Hg10 mi
3:00 AM66 °FClear.16 mph64%29.89 "Hg10 mi
2:00 AM68 °FClear.17 mph60%30.09 "Hg10 mi
1:00 AM68 °FClear.20 mph60%30.12 "Hg10 mi
12:00 AM70 °FClear.18 mph53%30.09 "Hg10 mi
11:00 PM
Oct 25
72 °FClear.14 mph44%30.07 "Hg10 mi
10:00 PM72 °FClear.9 mph47%30.07 "Hg10 mi
9:00 PM73 °FClear.12 mph44%30.01 "Hg10 mi
6:00 PM82 °FPassing clouds.18 mph32%29.86 "HgN/A
5:00 PM86 °FScattered clouds.23 mph31%29.83 "HgN/A
4:00 PM91 °FScattered clouds.17 mph21%29.83 "HgN/A
3:00 PM91 °FScattered clouds.17 mph23%29.86 "HgN/A
1:00 PM90 °FPassing clouds.16 mph24%29.95 "HgN/A
12:00 PM86 °FPassing clouds.16 mph29%29.98 "HgN/A
11:00 AM84 °FPassing clouds.17 mph31%30.01 "HgN/A
10:00 AM81 °FPassing clouds.18 mph37%30.01 "HgN/A
9:00 AM77 °FSunny.18 mph42%30.04 "Hg10 mi
8:00 AM73 °FPassing clouds.18 mph47%30.01 "HgN/A
7:00 AM70 °FSunny.14 mph53%30.01 "Hg10 mi
6:00 AM68 °FSunny.10 mph56%30.01 "Hg10 mi
Weather by CustomWeather, © 2014

See weather overviewHow to use our weather pages